TimePST,TemperatureF,Dew PointF,Humidity,Sea Level PressureIn,VisibilityMPH,Wind Direction,Wind SpeedMPH,Gust SpeedMPH,PrecipitationIn,Events,Conditions,WindDirDegrees,DateUTC
12:15 AM,55.4,51.8,88,30.24,10.0,SSE,10.4,-,0.00,,Overcast,160,2013-03-02 08:15:00
12:35 AM,55.4,51.8,88,30.24,10.0,SSE,10.4,16.1,0.00,,Overcast,150,2013-03-02 08:35:00
12:55 AM,55.4,53.6,94,30.24,10.0,SSE,10.4,-,0.00,,Overcast,160,2013-03-02 08:55:00
1:15 AM,55.4,51.8,88,30.24,10.0,SSE,16.1,23.0,0.00,,Overcast,150,2013-03-02 09:15:00
1:35 AM,55.4,51.8,88,30.23,10.0,SSE,13.8,20.7,0.00,,Overcast,160,2013-03-02 09:35:00
1:55 AM,55.4,51.8,88,30.24,10.0,SSE,15.0,21.9,0.00,,Overcast,160,2013-03-02 09:55:00
2:15 AM,55.4,51.8,88,30.23,10.0,SSE,12.7,17.3,0.00,,Overcast,160,2013-03-02 10:15:00
2:35 AM,55.4,51.8,88,30.22,10.0,SSE,9.2,18.4,0.00,,Overcast,160,2013-03-02 10:35:00
2:55 AM,55.4,51.8,88,30.21,10.0,SSE,12.7,20.7,0.00,,Overcast,150,2013-03-02 10:55:00
3:15 AM,53.6,51.8,94,30.20,10.0,SSE,13.8,20.7,0.00,,Overcast,160,2013-03-02 11:15:00
3:35 AM,53.6,51.8,94,30.19,10.0,SSE,11.5,20.7,0.00,,Overcast,150,2013-03-02 11:35:00
3:55 AM,53.6,51.8,94,30.18,10.0,SSE,12.7,19.6,0.00,,Overcast,150,2013-03-02 11:55:00
4:15 AM,53.6,51.8,94,30.17,10.0,SSE,12.7,19.6,0.00,,Overcast,150,2013-03-02 12:15:00
4:35 AM,53.6,51.8,94,30.18,10.0,SSE,12.7,19.6,0.00,,Overcast,150,2013-03-02 12:35:00
4:55 AM,53.6,51.8,94,30.18,10.0,SSE,10.4,17.3,0.00,,Overcast,150,2013-03-02 12:55:00
5:15 AM,53.6,51.8,94,30.17,10.0,SE,13.8,19.6,0.00,,Overcast,140,2013-03-02 13:15:00
5:35 AM,53.6,51.8,94,30.17,10.0,SSE,11.5,20.7,0.00,,Overcast,150,2013-03-02 13:35:00
5:55 AM,53.6,51.8,94,30.16,10.0,SE,12.7,17.3,0.00,,Overcast,140,2013-03-02 13:55:00
6:15 AM,53.6,51.8,94,30.16,10.0,SSE,9.2,17.3,0.00,,Overcast,150,2013-03-02 14:15:00
6:35 AM,53.6,51.8,94,30.14,10.0,SE,11.5,17.3,0.00,,Overcast,140,2013-03-02 14:35:00
6:55 AM,53.6,51.8,94,30.15,10.0,SSE,9.2,18.4,0.00,,Overcast,150,2013-03-02 14:55:00
7:15 AM,53.6,50.0,88,30.14,10.0,SSE,10.4,20.7,0.00,,Overcast,150,2013-03-02 15:15:00
7:35 AM,53.6,50.0,88,30.13,10.0,SE,11.5,16.1,0.00,,Overcast,140,2013-03-02 15:35:00
7:55 AM,53.6,50.0,88,30.13,10.0,SE,10.4,17.3,0.00,,Overcast,140,2013-03-02 15:55:00
8:15 AM,53.6,50.0,88,30.13,10.0,SE,12.7,17.3,0.00,,Overcast,140,2013-03-02 16:15:00
8:35 AM,53.6,50.0,88,30.12,10.0,SE,8.1,16.1,0.00,,Overcast,140,2013-03-02 16:35:00
8:55 AM,53.6,50.0,88,30.12,10.0,SE,9.2,-,0.00,,Overcast,140,2013-03-02 16:55:00
9:15 AM,53.6,50.0,88,30.11,10.0,SSE,15.0,25.3,0.00,,Overcast,150,2013-03-02 17:15:00
9:35 AM,55.4,50.0,82,30.11,10.0,SE,16.1,21.9,0.00,,Overcast,140,2013-03-02 17:35:00
9:55 AM,55.4,50.0,82,30.10,10.0,SE,13.8,20.7,0.00,,Overcast,140,2013-03-02 17:55:00
10:35 AM,55.4,50.0,82,30.08,10.0,SE,15.0,24.2,0.00,,Overcast,140,2013-03-02 18:35:00
10:55 AM,55.4,50.0,82,30.07,10.0,SE,15.0,26.5,0.00,,Overcast,140,2013-03-02 18:55:00
11:15 AM,55.4,50.0,82,30.07,10.0,SSE,12.7,25.3,0.00,,Mostly Cloudy,150,2013-03-02 19:15:00
11:35 AM,55.4,50.0,82,30.07,10.0,SSE,17.3,28.8,0.00,,Overcast,160,2013-03-02 19:35:00
11:55 AM,55.4,50.0,82,30.07,10.0,SSE,17.3,24.2,0.00,,Overcast,160,2013-03-02 19:55:00
12:15 PM,55.4,50.0,82,30.06,10.0,SSE,17.3,25.3,0.00,,Overcast,160,2013-03-02 20:15:00
12:35 PM,55.4,50.0,82,30.05,10.0,SSE,16.1,27.6,0.00,,Overcast,150,2013-03-02 20:35:00
12:55 PM,55.4,50.0,82,30.04,10.0,SSE,17.3,25.3,0.00,,Overcast,160,2013-03-02 20:55:00
1:15 PM,55.4,50.0,82,30.03,10.0,SSE,15.0,26.5,0.00,,Overcast,160,2013-03-02 21:15:00
1:55 PM,46.4,46.4,100,30.06,5.0,SSW,13.8,23.0,0.00,,Overcast,210,2013-03-02 21:55:00
2:15 PM,44.6,44.6,100,30.07,5.0,SW,16.1,23.0,0.00,,Overcast,220,2013-03-02 22:15:00
2:35 PM,44.6,44.6,100,30.07,4.0,WSW,9.2,17.3,0.00,,Overcast,250,2013-03-02 22:35:00
2:55 PM,44.6,44.6,100,30.08,3.0,West,9.2,-,0.00,,Overcast,260,2013-03-02 22:55:00
3:15 PM,44.6,44.6,100,30.09,4.0,SW,6.9,-,0.00,,Overcast,230,2013-03-02 23:15:00
3:35 PM,44.6,44.6,100,30.10,5.0,WSW,5.8,-,0.01,,Overcast,240,2013-03-02 23:35:00
3:55 PM,44.6,44.6,100,30.11,5.0,SW,6.9,-,0.01,,Overcast,220,2013-03-02 23:55:00
4:15 PM,42.8,42.8,100,30.11,5.0,SW,8.1,-,0.00,,Overcast,230,2013-03-03 00:15:00
4:35 PM,42.8,42.8,100,30.11,9.0,SW,8.1,-,0.01,,Overcast,230,2013-03-03 00:35:00
4:55 PM,42.8,42.8,100,30.11,10.0,SW,6.9,-,0.01,,Overcast,230,2013-03-03 00:55:00
5:15 PM,42.8,42.8,100,30.11,10.0,WSW,5.8,-,0.00,,Overcast,240,2013-03-03 01:15:00
5:35 PM,44.6,44.6,100,30.11,10.0,SW,10.4,-,0.00,,Mostly Cloudy,230,2013-03-03 01:35:00
5:55 PM,44.6,44.6,100,30.12,10.0,West,4.6,-,0.00,,Scattered Clouds,270,2013-03-03 01:55:00
6:15 PM,44.6,44.6,100,30.12,10.0,WSW,8.1,-,0.00,,Partly Cloudy,250,2013-03-03 02:15:00
6:35 PM,44.6,42.8,93,30.13,10.0,SW,10.4,16.1,0.00,,Mostly Cloudy,230,2013-03-03 02:35:00
6:55 PM,44.6,42.8,93,30.13,10.0,WSW,10.4,19.6,0.00,,Mostly Cloudy,240,2013-03-03 02:55:00
7:15 PM,42.8,42.8,100,30.14,10.0,SW,8.1,-,0.00,,Partly Cloudy,220,2013-03-03 03:15:00
7:35 PM,42.8,42.8,100,30.14,10.0,West,6.9,-,0.00,,Clear,260,2013-03-03 03:35:00
7:55 PM,42.8,39.2,87,30.15,10.0,West,5.8,-,0.00,,Mostly Cloudy,260,2013-03-03 03:55:00
8:15 PM,42.8,39.2,87,30.15,10.0,West,4.6,-,0.00,,Mostly Cloudy,260,2013-03-03 04:15:00
8:35 PM,42.8,39.2,87,30.16,10.0,SW,8.1,-,0.00,,Partly Cloudy,230,2013-03-03 04:35:00
9:15 PM,42.8,39.2,87,30.16,10.0,West,9.2,20.7,0.00,,Clear,270,2013-03-03 05:15:00
9:35 PM,42.8,39.2,87,30.17,10.0,West,9.2,-,0.00,,Scattered Clouds,260,2013-03-03 05:35:00
10:15 PM,42.8,41.0,93,30.18,10.0,WSW,6.9,-,0.00,,Scattered Clouds,250,2013-03-03 06:15:00
10:35 PM,42.8,39.2,87,30.18,10.0,West,4.6,-,0.00,,Partly Cloudy,270,2013-03-03 06:35:00
10:55 PM,42.8,39.2,87,30.18,10.0,West,5.8,-,0.00,,Scattered Clouds,270,2013-03-03 06:55:00
11:35 PM,41.0,39.2,93,30.18,10.0,SW,6.9,-,0.00,,Clear,220,2013-03-03 07:35:00
11:55 PM,41.0,39.2,93,30.18,10.0,WSW,6.9,-,0.00,,Clear,240,2013-03-03 07:55:00